Flag for Germany Weather past 2 weeks in Eckernförde, Schleswig-Holstein, Germany

Now
51 °F

Low clouds.


Feels Like: 49 °F
Forecast: 46 / 57 °F
Wind: 5 mph from Northwest

Location: Schleswig

Current Time: Oct 23, 2014 at 12:03:55 AM

Latest Report: Oct 22, 2014 at 10:00 PM


Visibility: 8 mi

Pressure: 30.00 "Hg

Humidity: 95%

Dew point: 49 °F

Location of EckernfördeLocation

Historic Weather in Eckernförde — Graph

°F

Eckernförde temperature yesterday

Maximum temperature yesterday: 57 °F (at 3:00 PM)
Minimum temperature yesterday: 47 °F (at 8:00 AM)
Average temperature yesterday: 51 °F

Past Weeks' High & Low Weather Summary

 TemperatureHumidityPressure
High64 °F (Oct 11, 3:00 PM)100% (Oct 11, 8:00 AM)30.12 "Hg (Oct 11, 8:00 AM)
Low46 °F (Oct 11, 8:00 AM)61% (Oct 12, 2:00 PM)29.29 "Hg (Oct 21, 7:00 PM)
Average55 °F91%29.77 "Hg
* Reported Oct 7 10:00 PM — Oct 22 10:00 PM, Eckernförde, Weather by CustomWeather, © 2014

Note: Actual official high and low records may vary slightly from our data, if they occured in-between our weather recording intervals... More about our weather records

Advertising

Eckernförde weather history for previous 24 hours

 ConditionsComfort  
Time TempWeatherWind HumidityBarometerVisibility
10:00 PM
Oct 22
51 °FLow clouds.5 mph95%30.00 "Hg7 mi
9:00 PM52 °FLow clouds.5 mph95%29.97 "Hg9 mi
8:00 PM52 °FLow clouds.7 mph92%29.95 "Hg16 mi
7:00 PM52 °FLow clouds.6 mph91%29.92 "Hg16 mi
6:00 PM53 °FLow clouds.7 mph93%29.89 "Hg12 mi
4:00 PM57 °FPartly sunny.6 mph71%29.82 "Hg25 mi
3:00 PM57 °FPartly sunny.6 mph73%29.80 "Hg25 mi
2:00 PM57 °FPartly sunny.6 mph73%29.77 "Hg22 mi
1:00 PM56 °FPartly sunny.5 mph78%29.74 "Hg19 mi
12:00 PM54 °FPartly sunny.5 mph83%29.71 "Hg16 mi
10:00 AM49 °FOvercast.3 mph96%29.63 "Hg12 mi
9:00 AM48 °FOvercast.3 mph97%29.59 "Hg12 mi
8:00 AM47 °FOvercast.2 mph97%29.50 "Hg12 mi
7:00 AM48 °FPassing clouds.1 mph98%29.44 "Hg12 mi
6:00 AM50 °FPassing clouds.2 mph95%29.44 "Hg14 mi
4:00 AM48 °FPassing clouds.3 mph96%29.44 "Hg14 mi
3:00 AM49 °FPassing clouds.3 mph96%29.44 "Hg14 mi
2:00 AM49 °FOvercast.3 mph94%29.41 "Hg16 mi
1:00 AM49 °FOvercast.3 mph94%29.41 "Hg17 mi
12:00 AM50 °FOvercast.3 mph94%29.38 "Hg16 mi
Weather by CustomWeather, © 2014

See weather overviewHow to use our weather pages